TimeCDT,TemperatureF,Dew PointF,Humidity,Sea Level PressureIn,VisibilityMPH,Wind Direction,Wind SpeedMPH,Gust SpeedMPH,PrecipitationIn,Events,Conditions,WindDirDegrees,DateUTC
12:53 AM,79.0,72.0,79,29.96,10.0,South,3.5,-,N/A,,Clear,180,2013-06-12 05:53:00
1:53 AM,75.9,71.1,85,29.96,10.0,Calm,Calm,-,N/A,,Clear,0,2013-06-12 06:53:00
2:53 AM,72.0,70.0,93,29.96,7.0,Calm,Calm,-,N/A,,Clear,0,2013-06-12 07:53:00
3:53 AM,71.1,69.1,93,29.96,3.0,Calm,Calm,-,N/A,,Clear,0,2013-06-12 08:53:00
4:17 AM,71.1,69.1,93,29.98,1.8,Calm,Calm,-,N/A,,Clear,0,2013-06-12 09:17:00
4:50 AM,69.8,69.8,100,29.99,2.0,Calm,Calm,-,N/A,,Clear,0,2013-06-12 09:50:00
4:53 AM,70.0,68.0,93,29.97,0.8,Calm,Calm,-,N/A,,Mist,0,2013-06-12 09:53:00
5:05 AM,70.0,69.1,97,29.99,1.2,Calm,Calm,-,N/A,,Partly Cloudy,0,2013-06-12 10:05:00
5:13 AM,70.0,69.1,97,29.99,3.0,East,3.5,-,N/A,,Partly Cloudy,100,2013-06-12 10:13:00
5:29 AM,69.1,68.0,96,29.99,1.8,Calm,Calm,-,N/A,,Clear,0,2013-06-12 10:29:00
5:47 AM,69.8,68.0,94,30.00,3.0,Calm,Calm,-,N/A,,Clear,0,2013-06-12 10:47:00
5:48 AM,69.1,68.0,96,29.99,3.0,Calm,Calm,-,N/A,,Clear,0,2013-06-12 10:48:00
6:17 AM,69.1,66.9,93,30.01,1.2,Calm,Calm,-,N/A,,Clear,0,2013-06-12 11:17:00
6:25 AM,69.1,66.9,93,30.02,0.5,Calm,Calm,-,N/A,Fog,Fog,0,2013-06-12 11:25:00
6:33 AM,69.1,68.0,96,30.02,2.0,Calm,Calm,-,N/A,,Clear,0,2013-06-12 11:33:00
6:42 AM,69.1,68.0,96,30.02,3.0,Calm,Calm,-,N/A,,Clear,0,2013-06-12 11:42:00
6:53 AM,70.0,69.1,97,30.00,5.0,Calm,Calm,-,N/A,,Clear,0,2013-06-12 11:53:00
7:53 AM,75.9,71.1,85,30.02,7.0,Calm,Calm,-,N/A,,Clear,0,2013-06-12 12:53:00
8:53 AM,79.0,73.0,82,30.04,7.0,West,6.9,-,N/A,,Clear,260,2013-06-12 13:53:00
9:33 AM,81.0,73.9,79,30.05,7.0,West,9.2,-,N/A,,Mostly Cloudy,260,2013-06-12 14:33:00
9:53 AM,82.0,73.9,76,30.04,7.0,Variable,6.9,-,N/A,,Overcast,0,2013-06-12 14:53:00
10:27 AM,84.9,75.0,72,30.05,8.0,WSW,6.9,-,N/A,,Scattered Clouds,240,2013-06-12 15:27:00
10:53 AM,86.0,73.9,67,30.03,8.0,SSW,9.2,-,N/A,,Partly Cloudy,210,2013-06-12 15:53:00
11:53 AM,88.0,72.0,59,30.03,9.0,WSW,12.7,-,N/A,,Partly Cloudy,250,2013-06-12 16:53:00
12:53 PM,89.1,72.0,57,30.01,8.0,SSW,5.8,-,N/A,,Partly Cloudy,210,2013-06-12 17:53:00
1:53 PM,89.1,72.0,57,30.01,9.0,SW,10.4,18.4,N/A,,Scattered Clouds,230,2013-06-12 18:53:00
2:53 PM,90.0,72.0,55,29.99,9.0,SSW,8.1,-,N/A,,Scattered Clouds,210,2013-06-12 19:53:00
3:53 PM,91.0,72.0,53,29.96,9.0,SW,9.2,-,N/A,,Partly Cloudy,230,2013-06-12 20:53:00
4:53 PM,89.1,72.0,57,29.94,9.0,SSW,9.2,-,N/A,,Clear,200,2013-06-12 21:53:00
5:53 PM,89.1,72.0,57,29.93,8.0,SW,10.4,-,N/A,,Clear,220,2013-06-12 22:53:00
6:53 PM,88.0,72.0,59,29.93,8.0,SSW,6.9,-,N/A,,Clear,210,2013-06-12 23:53:00
7:53 PM,86.0,73.0,65,29.92,8.0,SSW,4.6,-,N/A,,Clear,200,2013-06-13 00:53:00
8:53 PM,79.0,73.9,84,29.93,6.0,Calm,Calm,-,N/A,,Haze,0,2013-06-13 01:53:00
9:53 PM,77.0,73.9,90,29.95,5.0,Calm,Calm,-,N/A,,Clear,0,2013-06-13 02:53:00
10:53 PM,75.0,73.0,94,29.96,2.0,Calm,Calm,-,N/A,,Clear,0,2013-06-13 03:53:00
11:22 PM,75.0,73.0,94,29.98,1.2,Calm,Calm,-,N/A,,Clear,0,2013-06-13 04:22:00
11:39 PM,73.9,72.0,93,29.97,0.2,Calm,Calm,-,N/A,Fog,Fog,0,2013-06-13 04:39:00
11:49 PM,73.4,71.6,94,29.97,0.5,Calm,Calm,-,N/A,Fog,Fog,0,2013-06-13 04:49:00
11:53 PM,73.0,72.0,96,29.96,0.2,Calm,Calm,-,N/A,Fog,Fog,0,2013-06-13 04:53:00